Caldwell, NJ

5:39 PM EDT on June 23, 2017 (GMT -0400)
Essex County

Weather History for KCDW - October, 2014

Change the Weather History Date:

Sunday, October 5, 2014

  Actual Average Record
Temperature  
Mean Temperature 50 °F -  
Max Temperature 60 °F 68 °F 88 °F (1959)
Min Temperature 41 °F 45 °F 32 °F (1963)
Degree Days  
Heating Degree Days 15    
Moisture  
Dew Point 33 °F    
Average Humidity 56    
Maximum Humidity 82    
Minimum Humidity 38    
Precipitation  
Precipitation 0.00 in - - ()
Sea Level Pressure  
Sea Level Pressure 29.88 in    
Wind  
Wind Speed 6 mph (West)    
Max Wind Speed 15 mph    
Max Gust Speed 20 mph    
Visibility 10 miles    
Events      
Averages and records for this station are not official NWS values.
T = Trace of Precipitation, MM = Missing Value Source: NWS Daily Summary

Daily Weather History Graph

Daily Weather History Graph

Search for Another Location

Airport or City:

Trip Planner

Search our weather history database for the weather conditions in past years. The results will help you decide how hot, cold, wet, or windy it might be!

Date:

Astronomy

Oct. 05, 2014 Rise Set
Actual Time 6:57 AM EDT 6:32 PM EDT
Civil Twilight 6:30 AM EDT 6:59 PM EDT
Nautical Twilight 5:58 AM EDT 7:31 PM EDT
Astronomical Twilight 5:26 AM EDT 8:03 PM EDT
Moon 4:49 PM EDT (10/5) 3:30 AM EDT (10/5)
Length of Visible Light 12h 29m
Length of Day
11h 34m
Waxing Gibbous, 89% of the Moon is Illuminated
Oct 5
Waxing Gibbous
Oct 8
Full
Oct 15
Last Quarter
Oct 23
New
Oct 30
First Quarter

Hourly Weather History & Observations

Time (EDT) Temp. Windchill Dew Point Humidity Pressure Visibility Wind Dir Wind Speed Gust Speed Precip Events Conditions
12:53 AM 48.9 °F - 32.0 °F 52% 29.74 in 10.0 mi WNW 8.1 mph - N/A   Clear
1:53 AM 46.9 °F - 32.0 °F 56% 29.76 in 10.0 mi West 5.8 mph - N/A   Clear
2:53 AM 45.0 °F - 33.1 °F 63% 29.77 in 10.0 mi Calm Calm - N/A   Clear
3:53 AM 44.1 °F 42.5 °F 33.1 °F 65% 29.78 in 10.0 mi SSW 3.5 mph - N/A   Clear
4:53 AM 44.1 °F 42.5 °F 33.1 °F 65% 29.81 in 10.0 mi SW 3.5 mph - N/A   Clear
5:53 AM 43.0 °F 41.3 °F 30.9 °F 62% 29.82 in 10.0 mi SSW 3.5 mph - N/A   Clear
6:53 AM 41.0 °F 38.0 °F 32.0 °F 70% 29.83 in 10.0 mi SSW 4.6 mph - N/A   Clear
7:53 AM 42.1 °F 40.2 °F 33.1 °F 70% 29.87 in 10.0 mi Variable 3.5 mph - N/A   Clear
8:53 AM 46.0 °F 40.6 °F 32.0 °F 58% 29.89 in 10.0 mi West 11.5 mph - N/A   Clear
9:53 AM 50.0 °F - 32.0 °F 50% 29.88 in 10.0 mi NW 15.0 mph - N/A   Clear
10:53 AM 51.1 °F - 30.9 °F 46% 29.88 in 10.0 mi West 10.4 mph - N/A   Clear
11:53 AM 53.1 °F - 30.9 °F 43% 29.87 in 10.0 mi West 8.1 mph - N/A   Clear
12:53 PM 55.0 °F - 30.0 °F 38% 29.86 in 10.0 mi West 11.5 mph 19.6 mph N/A   Clear
1:53 PM 57.0 °F - 32.0 °F 39% 29.86 in 10.0 mi West 9.2 mph - N/A   Clear
2:53 PM 59.0 °F - 34.0 °F 39% 29.85 in 10.0 mi Variable 6.9 mph - N/A   Clear
3:53 PM 59.0 °F - 33.1 °F 38% 29.86 in 10.0 mi West 5.8 mph - N/A   Clear
4:53 PM 59.0 °F - 34.0 °F 39% 29.88 in 10.0 mi WNW 12.7 mph - N/A   Clear
5:53 PM 55.9 °F - 35.1 °F 45% 29.90 in 10.0 mi West 6.9 mph - N/A   Partly Cloudy
6:53 PM 55.0 °F - 35.1 °F 47% 29.93 in 10.0 mi West 8.1 mph - N/A   Clear
7:53 PM 51.1 °F - 36.0 °F 56% 29.95 in 10.0 mi Calm Calm - N/A   Clear
8:53 PM 48.0 °F - 37.0 °F 66% 29.98 in 10.0 mi Calm Calm - N/A   Clear
9:53 PM 46.0 °F - 37.0 °F 71% 30.00 in 10.0 mi Calm Calm - N/A   Clear
10:53 PM 44.1 °F - 37.0 °F 76% 30.02 in 10.0 mi Calm Calm - N/A   Clear
11:53 PM 42.1 °F - 37.0 °F 82% 30.03 in 10.0 mi Calm Calm - N/A   Clear